Kota Waris — S6RJ — position and weather

sailwx.info

Track history (hours):
 
Tides and Currents Weather Stations Pressure Air Temp Water Temp Dewpoint Dewpoint Depression Visibility Wind Speed Wind Dir Waves Ship Positions

Kota Waris

Last reported at 2014-Oct-23 01:33 UTC. Time now 2014-Oct-23 02:34 UTC.
Position N 01°14' E 103°57'.

Length 185 m; draft 9.4 m.

Type: Ship (hazmat cat A). MMSI: 564482000.

Date/timePositionNaut miles runAvg speedWind from/ knotsBaromVisibWave heightAir tempDewpointWater temp
2014-Oct-23 01:33N 01°14' E 103°57'10 9.9
2014-Oct-23 00:33N 01°17' E 104°06'  
2014-Oct-20 06:17N 16°10' E 108°26'1214.4
2014-Oct-20 05:27N 16°10' E 108°14'3 3.6
2014-Oct-20 04:33N 16°07' E 108°13'0 0.0
2014-Oct-20 03:33N 16°07' E 108°13'0 0.0
2014-Oct-20 02:33N 16°07' E 108°13'0 0.0
2014-Oct-20 01:33N 16°07' E 108°13'0 0.0
2014-Oct-20 00:33N 16°07' E 108°13'0 0.0
2014-Oct-19 23:33N 16°07' E 108°13'0 0.1
2014-Oct-19 22:33N 16°07' E 108°13'5 4.1
2014-Oct-19 21:25N 16°11' E 108°15'10 9.4
2014-Oct-19 20:21N 16°13' E 108°25'1 1.4
2014-Oct-19 19:33N 16°14' E 108°26'3 1.4
2014-Oct-19 17:33N 16°16' E 108°26'6 5.9
2014-Oct-19 16:33N 16°21' E 108°30'261 5.3
2014-Oct-17 15:05N 20°14' E 110°34'1010.1
2014-Oct-17 14:06N 20°12' E 110°24'610.1
2014-Oct-17 13:33N 20°10' E 110°18'1110.4
2014-Oct-17 12:30N 20°09' E 110°06'13311.8
2014-Oct-17 01:13N 21°36' E 108°20'0 0.0
2014-Oct-16 13:32N 21°36' E 108°20'  
Track history (hours):
 
Tides and Currents Weather Stations Pressure Air Temp Water Temp Dewpoint Dewpoint Depression Visibility Wind Speed Wind Dir Waves Ship Positions

Kota Waris

Last reported at 2014-Oct-23 01:33 UTC. Time now 2014-Oct-23 02:34 UTC.
Position N 01°14' E 103°57'.

Length 185 m; draft 9.4 m.

Type: Ship (hazmat cat A). MMSI: 564482000.

Date/timePositionNaut miles runAvg speedWind from/ knotsBaromVisibWave heightAir tempDewpointWater temp
2014-Oct-23 01:33N 01°14' E 103°57'10 9.9
2014-Oct-23 00:33N 01°17' E 104°06'  
2014-Oct-20 06:17N 16°10' E 108°26'1214.4
2014-Oct-20 05:27N 16°10' E 108°14'3 3.6
2014-Oct-20 04:33N 16°07' E 108°13'0 0.0
2014-Oct-20 03:33N 16°07' E 108°13'0 0.0
2014-Oct-20 02:33N 16°07' E 108°13'0 0.0
2014-Oct-20 01:33N 16°07' E 108°13'0 0.0
2014-Oct-20 00:33N 16°07' E 108°13'0 0.0
2014-Oct-19 23:33N 16°07' E 108°13'0 0.1
2014-Oct-19 22:33N 16°07' E 108°13'5 4.1
2014-Oct-19 21:25N 16°11' E 108°15'10 9.4
2014-Oct-19 20:21N 16°13' E 108°25'1 1.4
2014-Oct-19 19:33N 16°14' E 108°26'3 1.4
2014-Oct-19 17:33N 16°16' E 108°26'6 5.9
2014-Oct-19 16:33N 16°21' E 108°30'261 5.3
2014-Oct-17 15:05N 20°14' E 110°34'1010.1
2014-Oct-17 14:06N 20°12' E 110°24'610.1
2014-Oct-17 13:33N 20°10' E 110°18'1110.4
2014-Oct-17 12:30N 20°09' E 110°06'13311.8
2014-Oct-17 01:13N 21°36' E 108°20'0 0.0
2014-Oct-16 13:32N 21°36' E 108°20'  

Dump ship's entire track history